Year,Month,Day,Hour,Minute,Value (Times are PST for windgust in km/hr)
2021,01,07,00,00,3.20
2021,01,07,00,01,3.20
2021,01,07,00,02,1.60
2021,01,07,00,03,1.60
2021,01,07,00,04,3.20
2021,01,07,00,05,3.20
2021,01,07,00,06,3.20
2021,01,07,00,07,3.20
2021,01,07,00,08,4.80
2021,01,07,00,09,3.20
2021,01,07,00,10,3.20
2021,01,07,00,11,3.20
2021,01,07,00,12,4.80
2021,01,07,00,13,4.80
2021,01,07,00,14,4.80
2021,01,07,00,15,4.80
2021,01,07,00,16,4.80
2021,01,07,00,17,4.80
2021,01,07,00,18,4.80
2021,01,07,00,19,3.20
2021,01,07,00,20,4.80
2021,01,07,00,21,4.80
2021,01,07,00,22,4.80
2021,01,07,00,23,6.40
2021,01,07,00,24,6.40
2021,01,07,00,25,6.40
2021,01,07,00,26,6.40
2021,01,07,00,27,6.40
2021,01,07,00,28,4.80
2021,01,07,00,29,6.40
2021,01,07,00,30,3.20
2021,01,07,00,31,1.60
2021,01,07,00,32,3.20
2021,01,07,00,33,4.80
2021,01,07,00,34,4.80
2021,01,07,00,35,3.20
2021,01,07,00,36,4.80
2021,01,07,00,37,6.40
2021,01,07,00,38,6.40
2021,01,07,00,39,3.20
2021,01,07,00,40,4.80
2021,01,07,00,41,3.20
2021,01,07,00,42,4.80
2021,01,07,00,43,8.10
2021,01,07,00,44,8.10
2021,01,07,00,45,4.80
2021,01,07,00,46,3.20
2021,01,07,00,47,3.20
2021,01,07,00,48,3.20
2021,01,07,00,49,3.20
2021,01,07,00,50,4.80
2021,01,07,00,51,4.80
2021,01,07,00,52,3.20
2021,01,07,00,53,3.20
2021,01,07,00,54,1.60
2021,01,07,00,55,3.20
2021,01,07,00,56,3.20
2021,01,07,00,57,3.20
2021,01,07,00,58,1.60
2021,01,07,00,59,1.60
2021,01,07,01,00,3.20
2021,01,07,01,01,3.20
2021,01,07,01,02,4.80
2021,01,07,01,03,3.20
2021,01,07,01,04,1.60
2021,01,07,01,05,3.20
2021,01,07,01,06,3.20
2021,01,07,01,07,3.20
2021,01,07,01,08,4.80
2021,01,07,01,09,4.80
2021,01,07,01,10,3.20
2021,01,07,01,11,3.20
2021,01,07,01,12,4.80
2021,01,07,01,13,4.80
2021,01,07,01,14,4.80
2021,01,07,01,15,3.20
2021,01,07,01,16,3.20
2021,01,07,01,17,3.20
2021,01,07,01,18,3.20
2021,01,07,01,19,4.80
2021,01,07,01,20,4.80
2021,01,07,01,21,4.80
2021,01,07,01,22,3.20
2021,01,07,01,23,3.20
2021,01,07,01,24,3.20
2021,01,07,01,25,3.20
2021,01,07,01,26,1.60
2021,01,07,01,27,3.20
2021,01,07,01,28,1.60
2021,01,07,01,29,1.60
2021,01,07,01,31,1.60
2021,01,07,01,32,4.80
2021,01,07,01,33,3.20
2021,01,07,01,34,3.20
2021,01,07,01,35,3.20
2021,01,07,01,36,1.60
2021,01,07,01,37,1.60
2021,01,07,01,38,1.60
2021,01,07,01,39,1.60
2021,01,07,01,40,4.80
2021,01,07,01,41,4.80
2021,01,07,01,42,3.20
2021,01,07,01,43,3.20
2021,01,07,01,44,3.20
2021,01,07,01,45,3.20
2021,01,07,01,46,4.80
2021,01,07,01,47,3.20
2021,01,07,01,48,3.20
2021,01,07,04,30,1.60
2021,01,07,04,31,3.20
2021,01,07,04,32,3.20
2021,01,07,04,33,4.80
2021,01,07,04,34,4.80
2021,01,07,04,35,4.80
2021,01,07,04,36,3.20
2021,01,07,04,37,4.80
2021,01,07,04,38,3.20
2021,01,07,04,39,1.60
2021,01,07,04,40,4.80
2021,01,07,04,41,4.80
2021,01,07,04,42,4.80
2021,01,07,04,43,4.80
2021,01,07,04,44,3.20
2021,01,07,04,45,3.20
2021,01,07,04,46,1.60
2021,01,07,04,47,3.20
2021,01,07,04,48,3.20
2021,01,07,04,49,3.20
2021,01,07,04,50,3.20
2021,01,07,04,51,4.80
2021,01,07,04,52,3.20
2021,01,07,04,53,4.80
2021,01,07,04,54,4.80
2021,01,07,04,55,3.20
2021,01,07,04,56,4.80
2021,01,07,04,57,4.80
2021,01,07,04,58,4.80
2021,01,07,04,59,6.40
2021,01,07,05,00,4.80
2021,01,07,05,01,4.80
2021,01,07,05,02,4.80
2021,01,07,05,03,6.40
2021,01,07,05,04,6.40
2021,01,07,05,05,4.80
2021,01,07,05,06,4.80
2021,01,07,05,07,1.60
2021,01,07,05,08,3.20
2021,01,07,05,09,1.60
2021,01,07,05,10,3.20
2021,01,07,05,11,4.80
2021,01,07,05,12,3.20
2021,01,07,05,13,3.20
2021,01,07,05,14,1.60
2021,01,07,05,18,1.60
2021,01,07,05,20,3.20
2021,01,07,05,21,4.80
2021,01,07,05,22,4.80
2021,01,07,05,23,3.20
2021,01,07,05,24,3.20
2021,01,07,05,25,4.80
2021,01,07,05,26,6.40
2021,01,07,05,27,8.10
2021,01,07,05,28,6.40
2021,01,07,05,29,6.40
2021,01,07,05,30,6.40
2021,01,07,05,31,9.60
2021,01,07,05,32,8.10
2021,01,07,05,33,6.40
2021,01,07,05,34,9.60
2021,01,07,05,35,9.60
2021,01,07,05,36,12.90
2021,01,07,05,37,9.60
2021,01,07,05,38,4.80
2021,01,07,05,39,4.80
2021,01,07,05,40,11.30
2021,01,07,05,41,9.60
2021,01,07,05,42,6.40
2021,01,07,05,43,4.80
2021,01,07,05,44,6.40
2021,01,07,05,45,8.10
2021,01,07,05,46,6.40
2021,01,07,05,47,6.40
2021,01,07,05,48,6.40
2021,01,07,05,49,9.60
2021,01,07,05,50,4.80
2021,01,07,05,51,4.80
2021,01,07,05,52,14.50
2021,01,07,05,53,11.30
2021,01,07,05,54,9.60
2021,01,07,05,55,6.40
2021,01,07,05,56,9.60
2021,01,07,05,57,11.30
2021,01,07,05,58,14.50
2021,01,07,05,59,12.90
2021,01,07,06,00,17.70
2021,01,07,06,01,11.30
2021,01,07,06,02,11.30
2021,01,07,06,03,11.30
2021,01,07,06,04,12.90
2021,01,07,06,05,14.50
2021,01,07,06,06,16.10
2021,01,07,06,07,12.90
2021,01,07,06,08,12.90
2021,01,07,06,09,14.50
2021,01,07,06,10,12.90
2021,01,07,06,11,16.10
2021,01,07,06,12,14.50
2021,01,07,06,13,14.50
2021,01,07,06,14,9.60
2021,01,07,06,15,11.30
2021,01,07,06,16,8.10
2021,01,07,06,17,12.90
2021,01,07,06,18,11.30
2021,01,07,06,19,14.50
2021,01,07,06,20,12.90
2021,01,07,06,21,12.90
2021,01,07,06,22,11.30
2021,01,07,06,23,12.90
2021,01,07,06,24,12.90
2021,01,07,06,25,14.50
2021,01,07,06,26,14.50
2021,01,07,06,27,16.10
2021,01,07,06,28,14.50
2021,01,07,06,29,14.50
2021,01,07,06,30,11.30
2021,01,07,06,31,14.50
2021,01,07,06,32,11.30
2021,01,07,06,33,16.10
2021,01,07,06,34,19.30
2021,01,07,06,35,14.50
2021,01,07,06,36,12.90
2021,01,07,06,37,16.10
2021,01,07,06,38,17.70
2021,01,07,06,39,20.90
2021,01,07,06,40,19.30
2021,01,07,06,41,20.90
2021,01,07,06,42,19.30
2021,01,07,06,43,22.50
2021,01,07,06,44,17.70
2021,01,07,06,45,19.30
2021,01,07,06,46,22.50
2021,01,07,06,47,14.50
2021,01,07,06,48,16.10
2021,01,07,06,49,14.50
2021,01,07,06,50,14.50
2021,01,07,06,51,16.10
2021,01,07,06,52,16.10
2021,01,07,06,53,11.30
2021,01,07,06,54,6.40
2021,01,07,06,55,16.10
2021,01,07,06,56,12.90
2021,01,07,06,57,12.90
2021,01,07,06,58,17.70
2021,01,07,06,59,11.30
2021,01,07,07,00,9.60
2021,01,07,07,01,11.30
2021,01,07,07,02,6.40
2021,01,07,07,03,9.60
2021,01,07,07,04,12.90
2021,01,07,07,05,12.90
2021,01,07,07,06,14.50
2021,01,07,07,07,14.50
2021,01,07,07,08,16.10
2021,01,07,07,09,12.90
2021,01,07,07,10,12.90
2021,01,07,07,11,16.10
2021,01,07,07,12,11.30
2021,01,07,07,13,11.30
2021,01,07,07,14,12.90
2021,01,07,07,15,14.50
2021,01,07,07,16,16.10
2021,01,07,07,17,14.50
2021,01,07,07,18,12.90
2021,01,07,07,19,12.90
2021,01,07,07,20,12.90
2021,01,07,07,21,6.40
2021,01,07,07,22,6.40
2021,01,07,07,23,9.60
2021,01,07,07,24,12.90
2021,01,07,07,25,12.90
2021,01,07,07,26,8.10
2021,01,07,07,27,6.40
2021,01,07,07,28,11.30
2021,01,07,07,29,9.60
2021,01,07,07,30,11.30
2021,01,07,07,31,9.60
2021,01,07,07,32,6.40
2021,01,07,07,33,9.60
2021,01,07,07,34,6.40
2021,01,07,07,35,8.10
2021,01,07,07,36,6.40
2021,01,07,07,37,14.50
2021,01,07,07,38,12.90
2021,01,07,07,39,11.30
2021,01,07,07,40,17.70
2021,01,07,07,41,11.30
2021,01,07,07,42,9.60
2021,01,07,07,43,9.60
2021,01,07,07,44,11.30
2021,01,07,07,45,9.60
2021,01,07,07,46,17.70
2021,01,07,07,47,14.50
2021,01,07,07,48,12.90
2021,01,07,07,49,11.30
2021,01,07,07,50,9.60
2021,01,07,07,51,11.30
2021,01,07,07,52,11.30
2021,01,07,07,53,11.30
2021,01,07,07,54,16.10
2021,01,07,07,55,9.60
2021,01,07,07,56,11.30
2021,01,07,07,57,11.30
2021,01,07,07,58,12.90
2021,01,07,07,59,9.60
2021,01,07,08,00,11.30
2021,01,07,08,01,8.10
2021,01,07,08,02,4.80
2021,01,07,08,03,11.30
2021,01,07,08,04,12.90
2021,01,07,08,05,11.30
2021,01,07,08,06,12.90
2021,01,07,08,07,16.10
2021,01,07,08,08,14.50
2021,01,07,08,09,11.30
2021,01,07,08,10,8.10
2021,01,07,08,11,6.40
2021,01,07,08,12,6.40
2021,01,07,08,13,9.60
2021,01,07,08,14,6.40
2021,01,07,08,15,4.80
2021,01,07,08,16,6.40
2021,01,07,08,17,9.60
2021,01,07,08,18,6.40
2021,01,07,08,19,6.40
2021,01,07,08,20,11.30
2021,01,07,08,21,11.30
2021,01,07,08,22,11.30
2021,01,07,08,23,12.90
2021,01,07,08,24,12.90
2021,01,07,08,25,14.50
2021,01,07,08,26,14.50
2021,01,07,08,27,6.40
2021,01,07,08,28,8.10
2021,01,07,08,29,14.50
2021,01,07,08,30,11.30
2021,01,07,08,31,16.10
2021,01,07,08,32,17.70
2021,01,07,08,33,16.10
2021,01,07,08,34,14.50
2021,01,07,08,35,14.50
2021,01,07,08,36,12.90
2021,01,07,08,37,12.90
2021,01,07,08,38,14.50
2021,01,07,08,39,16.10
2021,01,07,08,40,17.70
2021,01,07,08,41,12.90
2021,01,07,08,42,16.10
2021,01,07,08,43,12.90
2021,01,07,08,44,16.10
2021,01,07,08,45,17.70
2021,01,07,08,46,12.90
2021,01,07,08,47,14.50
2021,01,07,08,48,14.50
2021,01,07,08,49,14.50
2021,01,07,08,50,9.60
2021,01,07,08,51,6.40
2021,01,07,08,52,6.40
2021,01,07,08,53,11.30
2021,01,07,08,54,11.30
2021,01,07,08,55,11.30
2021,01,07,08,56,8.10
2021,01,07,08,57,8.10
2021,01,07,08,58,6.40
2021,01,07,08,59,8.10
2021,01,07,09,00,11.30
2021,01,07,09,01,11.30
2021,01,07,09,02,14.50
2021,01,07,09,03,16.10
2021,01,07,09,04,14.50
2021,01,07,09,05,17.70
2021,01,07,09,06,12.90
2021,01,07,09,07,16.10
2021,01,07,09,08,8.10
2021,01,07,09,09,12.90
2021,01,07,09,10,12.90
2021,01,07,09,11,12.90
2021,01,07,09,12,16.10
2021,01,07,09,13,16.10
2021,01,07,09,14,16.10
2021,01,07,09,15,12.90
2021,01,07,09,16,12.90
2021,01,07,09,17,11.30
2021,01,07,09,18,16.10
2021,01,07,09,19,12.90
2021,01,07,09,20,11.30
2021,01,07,09,21,12.90
2021,01,07,09,22,14.50
2021,01,07,09,23,12.90
2021,01,07,09,24,16.10
2021,01,07,09,25,17.70
2021,01,07,09,26,14.50
2021,01,07,09,27,19.30
2021,01,07,09,28,14.50
2021,01,07,09,29,14.50
2021,01,07,09,30,16.10
2021,01,07,09,31,12.90
2021,01,07,09,32,14.50
2021,01,07,09,33,12.90
2021,01,07,09,34,9.60
2021,01,07,09,35,12.90
2021,01,07,09,36,14.50
2021,01,07,09,37,14.50
2021,01,07,09,38,22.50
2021,01,07,09,39,19.30
2021,01,07,09,40,16.10
2021,01,07,09,41,14.50
2021,01,07,09,42,20.90
2021,01,07,09,43,20.90
2021,01,07,09,44,17.70
2021,01,07,09,45,14.50
2021,01,07,09,46,19.30
2021,01,07,09,47,20.90
2021,01,07,09,48,17.70
2021,01,07,09,49,20.90
2021,01,07,09,50,25.70
2021,01,07,09,51,16.10
2021,01,07,09,52,12.90
2021,01,07,09,53,12.90
2021,01,07,09,54,14.50
2021,01,07,09,55,17.70
2021,01,07,09,56,19.30
2021,01,07,09,57,19.30
2021,01,07,09,58,27.40
2021,01,07,09,59,25.70
2021,01,07,10,00,29.00
2021,01,07,10,01,32.20
2021,01,07,10,02,38.60
2021,01,07,10,03,30.60
2021,01,07,10,04,25.70
2021,01,07,10,05,35.40
2021,01,07,10,06,35.40
2021,01,07,10,07,24.20
2021,01,07,10,08,27.40
2021,01,07,10,09,24.20
2021,01,07,10,10,27.40
2021,01,07,10,11,19.30
2021,01,07,10,12,29.00
2021,01,07,10,13,22.50
2021,01,07,10,14,17.70
2021,01,07,10,15,22.50
2021,01,07,10,16,22.50
2021,01,07,10,17,14.50
2021,01,07,10,18,17.70
2021,01,07,10,19,19.30
2021,01,07,10,20,25.70
2021,01,07,10,21,22.50
2021,01,07,10,22,17.70
2021,01,07,10,23,27.40
2021,01,07,10,24,24.20
2021,01,07,10,25,25.70
2021,01,07,10,26,40.20
2021,01,07,10,27,37.00
2021,01,07,10,28,30.60
2021,01,07,10,29,37.00
2021,01,07,10,30,24.20
2021,01,07,10,31,30.60
2021,01,07,10,32,38.60
2021,01,07,10,33,33.80
2021,01,07,10,34,35.40
2021,01,07,10,35,24.20
2021,01,07,10,36,32.20
2021,01,07,10,37,40.20
2021,01,07,10,38,32.20
2021,01,07,10,39,30.60
2021,01,07,10,40,29.00
2021,01,07,10,41,32.20
2021,01,07,10,42,29.00
2021,01,07,10,43,27.40
2021,01,07,10,44,32.20
2021,01,07,10,45,29.00
2021,01,07,10,46,25.70
2021,01,07,10,47,30.60
2021,01,07,10,48,30.60
2021,01,07,10,49,32.20
2021,01,07,10,50,33.80
2021,01,07,10,51,29.00
2021,01,07,10,52,35.40
2021,01,07,10,53,32.20
2021,01,07,10,54,29.00
2021,01,07,10,55,32.20
2021,01,07,10,56,22.50
2021,01,07,10,57,27.40
2021,01,07,10,58,29.00
2021,01,07,10,59,29.00
2021,01,07,11,00,27.40
2021,01,07,11,01,20.90
2021,01,07,11,02,33.80
2021,01,07,11,03,37.00
2021,01,07,11,04,32.20
2021,01,07,11,05,25.70
2021,01,07,11,06,29.00
2021,01,07,11,07,30.60
2021,01,07,11,08,30.60
2021,01,07,11,09,25.70
2021,01,07,11,10,29.00
2021,01,07,11,11,29.00
2021,01,07,11,12,29.00
2021,01,07,11,13,30.60
2021,01,07,11,14,24.20
2021,01,07,11,15,38.60
2021,01,07,11,16,22.50
2021,01,07,11,17,33.80
2021,01,07,11,18,33.80
2021,01,07,11,19,22.50
2021,01,07,11,20,22.50
2021,01,07,11,21,22.50
2021,01,07,11,22,27.40
2021,01,07,11,23,35.40
2021,01,07,11,24,30.60
2021,01,07,11,25,33.80
2021,01,07,11,26,40.20
2021,01,07,11,27,32.20
2021,01,07,11,28,30.60
2021,01,07,11,29,25.70
2021,01,07,11,30,33.80
2021,01,07,11,31,32.20
2021,01,07,11,32,32.20
2021,01,07,11,33,35.40
2021,01,07,11,34,24.20
2021,01,07,11,35,32.20
2021,01,07,11,36,32.20
2021,01,07,11,37,25.70
2021,01,07,11,38,27.40
2021,01,07,11,39,24.20
2021,01,07,11,40,32.20
2021,01,07,11,41,37.00
2021,01,07,11,42,25.70
2021,01,07,11,43,24.20
2021,01,07,11,44,27.40
2021,01,07,11,45,27.40
2021,01,07,11,46,29.00
2021,01,07,11,47,35.40
2021,01,07,11,48,27.40
2021,01,07,11,49,32.20
2021,01,07,11,50,24.20
2021,01,07,11,51,25.70
2021,01,07,11,52,30.60
2021,01,07,11,53,35.40
2021,01,07,11,54,27.40
2021,01,07,11,55,32.20
2021,01,07,11,56,30.60
2021,01,07,11,57,32.20
2021,01,07,11,58,29.00
2021,01,07,11,59,32.20
2021,01,07,12,00,30.60
2021,01,07,12,01,29.00
2021,01,07,12,02,41.80
2021,01,07,12,03,30.60
2021,01,07,12,04,30.60
2021,01,07,12,05,25.70
2021,01,07,12,06,32.20
2021,01,07,12,07,29.00
2021,01,07,12,08,38.60
2021,01,07,12,09,30.60
2021,01,07,12,10,43.50
2021,01,07,12,11,30.60
2021,01,07,12,12,40.20
2021,01,07,12,13,37.00
2021,01,07,12,14,32.20
2021,01,07,12,15,43.50
2021,01,07,12,16,33.80
2021,01,07,12,17,32.20
2021,01,07,12,18,38.60
2021,01,07,12,19,35.40
2021,01,07,12,20,41.80
2021,01,07,12,21,38.60
2021,01,07,12,22,37.00
2021,01,07,12,23,41.80
2021,01,07,12,24,45.10
2021,01,07,12,25,41.80
2021,01,07,12,26,30.60
2021,01,07,12,27,40.20
2021,01,07,12,28,29.00
2021,01,07,12,29,40.20
2021,01,07,12,30,35.40
2021,01,07,12,31,40.20
2021,01,07,12,32,40.20
2021,01,07,12,33,32.20
2021,01,07,12,34,38.60
2021,01,07,12,35,37.00
2021,01,07,12,36,40.20
2021,01,07,12,37,33.80
2021,01,07,12,38,38.60
2021,01,07,12,39,37.00
2021,01,07,12,40,38.60
2021,01,07,12,41,25.70
2021,01,07,12,42,38.60
2021,01,07,12,43,41.80
2021,01,07,12,44,38.60
2021,01,07,12,45,29.00
2021,01,07,12,46,24.20
2021,01,07,12,47,29.00
2021,01,07,12,48,24.20
2021,01,07,12,49,29.00
2021,01,07,12,50,27.40
2021,01,07,12,51,30.60
2021,01,07,12,52,32.20
2021,01,07,12,53,32.20
2021,01,07,12,54,30.60
2021,01,07,12,55,30.60
2021,01,07,12,56,35.40
2021,01,07,12,57,32.20
2021,01,07,12,58,32.20
2021,01,07,12,59,27.40
2021,01,07,13,00,32.20
2021,01,07,13,01,24.20
2021,01,07,13,02,29.00
2021,01,07,13,03,27.40
2021,01,07,13,04,27.40
2021,01,07,13,05,40.20
2021,01,07,13,06,32.20
2021,01,07,13,07,27.40
2021,01,07,13,08,41.80
2021,01,07,13,09,37.00
2021,01,07,13,10,40.20
2021,01,07,13,11,40.20
2021,01,07,13,12,41.80
2021,01,07,13,13,38.60
2021,01,07,13,14,30.60
2021,01,07,13,15,33.80
2021,01,07,13,16,38.60
2021,01,07,13,17,37.00
2021,01,07,13,18,29.00
2021,01,07,13,19,38.60
2021,01,07,13,20,30.60
2021,01,07,13,21,33.80
2021,01,07,13,22,25.70
2021,01,07,13,23,30.60
2021,01,07,13,24,37.00
2021,01,07,13,25,38.60
2021,01,07,13,26,33.80
2021,01,07,13,27,27.40
2021,01,07,13,28,33.80
2021,01,07,13,29,35.40
2021,01,07,13,30,27.40
2021,01,07,13,31,32.20
2021,01,07,13,32,35.40
2021,01,07,13,33,32.20
2021,01,07,13,34,22.50
2021,01,07,13,35,29.00
2021,01,07,13,36,27.40
2021,01,07,13,37,32.20
2021,01,07,13,38,32.20
2021,01,07,13,39,27.40
2021,01,07,13,40,29.00
2021,01,07,13,41,29.00
2021,01,07,13,42,24.20
2021,01,07,13,43,24.20
2021,01,07,13,44,24.20
2021,01,07,13,45,24.20
2021,01,07,13,46,19.30
2021,01,07,13,47,22.50
2021,01,07,13,48,27.40
2021,01,07,13,49,22.50
2021,01,07,13,50,30.60
2021,01,07,13,51,30.60
2021,01,07,13,52,27.40
2021,01,07,13,53,24.20
2021,01,07,13,54,25.70
2021,01,07,13,55,19.30
2021,01,07,13,56,25.70
2021,01,07,13,57,25.70
2021,01,07,13,58,24.20
2021,01,07,13,59,29.00
2021,01,07,14,00,29.00
2021,01,07,14,01,29.00
2021,01,07,14,02,25.70
2021,01,07,14,03,27.40
2021,01,07,14,04,25.70
2021,01,07,14,05,24.20
2021,01,07,14,06,33.80
2021,01,07,14,07,30.60
2021,01,07,14,08,22.50
2021,01,07,14,09,25.70
2021,01,07,14,10,27.40
2021,01,07,14,11,22.50
2021,01,07,14,12,25.70
2021,01,07,14,13,24.20
2021,01,07,14,14,25.70
2021,01,07,14,15,30.60
2021,01,07,14,16,27.40
2021,01,07,14,17,25.70
2021,01,07,14,18,19.30
2021,01,07,14,19,16.10
2021,01,07,14,20,16.10
2021,01,07,14,21,17.70
2021,01,07,14,22,17.70
2021,01,07,14,23,17.70
2021,01,07,14,24,20.90
2021,01,07,14,25,14.50
2021,01,07,14,26,20.90
2021,01,07,14,27,22.50
2021,01,07,14,28,25.70
2021,01,07,14,29,29.00
2021,01,07,14,30,17.70
2021,01,07,14,31,32.20
2021,01,07,14,32,20.90
2021,01,07,14,33,32.20
2021,01,07,14,34,24.20
2021,01,07,14,35,27.40
2021,01,07,14,36,22.50
2021,01,07,14,37,32.20
2021,01,07,14,38,20.90
2021,01,07,14,39,27.40
2021,01,07,14,40,27.40
2021,01,07,14,41,17.70
2021,01,07,14,42,25.70
2021,01,07,14,43,22.50
2021,01,07,14,44,22.50
2021,01,07,14,45,17.70
2021,01,07,14,46,20.90
2021,01,07,14,47,20.90
2021,01,07,14,48,27.40
2021,01,07,14,49,17.70
2021,01,07,14,50,22.50
2021,01,07,14,51,25.70
2021,01,07,14,52,25.70
2021,01,07,14,53,17.70
2021,01,07,14,54,20.90
2021,01,07,14,55,19.30
2021,01,07,14,56,24.20
2021,01,07,14,57,22.50
2021,01,07,14,58,22.50
2021,01,07,14,59,24.20
2021,01,07,15,00,24.20
2021,01,07,15,01,22.50
2021,01,07,15,02,24.20
2021,01,07,15,03,27.40
2021,01,07,15,04,17.70
2021,01,07,15,05,14.50
2021,01,07,15,06,30.60
2021,01,07,15,07,33.80
2021,01,07,15,08,22.50
2021,01,07,15,09,17.70
2021,01,07,15,10,20.90
2021,01,07,15,11,27.40
2021,01,07,15,12,25.70
2021,01,07,15,13,22.50
2021,01,07,15,14,24.20
2021,01,07,15,15,25.70
2021,01,07,15,16,22.50
2021,01,07,15,17,24.20
2021,01,07,15,18,22.50
2021,01,07,15,19,20.90
2021,01,07,15,20,22.50
2021,01,07,15,21,24.20
2021,01,07,15,22,22.50
2021,01,07,15,23,20.90
2021,01,07,15,24,22.50
2021,01,07,15,25,32.20
2021,01,07,15,26,24.20
2021,01,07,15,27,27.40
2021,01,07,15,28,29.00
2021,01,07,15,29,24.20
2021,01,07,15,30,25.70
2021,01,07,15,31,30.60
2021,01,07,15,32,25.70
2021,01,07,15,33,32.20
2021,01,07,15,34,35.40
2021,01,07,15,35,27.40
2021,01,07,15,36,33.80
2021,01,07,15,37,20.90
2021,01,07,15,38,19.30
2021,01,07,15,39,16.10
2021,01,07,15,40,22.50
2021,01,07,15,41,25.70
2021,01,07,15,42,25.70
2021,01,07,15,43,25.70
2021,01,07,15,44,29.00
2021,01,07,15,45,24.20
2021,01,07,15,46,27.40
2021,01,07,15,47,27.40
2021,01,07,15,48,24.20
2021,01,07,15,49,27.40
2021,01,07,15,50,32.20
2021,01,07,15,51,29.00
2021,01,07,15,52,25.70
2021,01,07,15,53,27.40
2021,01,07,15,54,27.40
2021,01,07,15,55,25.70
2021,01,07,15,56,27.40
2021,01,07,15,57,30.60
2021,01,07,15,58,25.70
2021,01,07,15,59,29.00
2021,01,07,16,00,29.00
2021,01,07,16,01,27.40
2021,01,07,16,02,24.20
2021,01,07,16,03,30.60
2021,01,07,16,04,25.70
2021,01,07,16,05,27.40
2021,01,07,16,06,22.50
2021,01,07,16,07,25.70
2021,01,07,16,08,25.70
2021,01,07,16,09,24.20
2021,01,07,16,10,25.70
2021,01,07,16,11,29.00
2021,01,07,16,12,25.70
2021,01,07,16,13,24.20
2021,01,07,16,14,19.30
2021,01,07,16,15,17.70
2021,01,07,16,16,20.90
2021,01,07,16,17,24.20
2021,01,07,16,18,29.00
2021,01,07,16,19,24.20
2021,01,07,16,20,22.50
2021,01,07,16,21,20.90
2021,01,07,16,22,20.90
2021,01,07,16,23,30.60
2021,01,07,16,24,35.40
2021,01,07,16,25,25.70
2021,01,07,16,26,32.20
2021,01,07,16,27,30.60
2021,01,07,16,28,35.40
2021,01,07,16,29,30.60
2021,01,07,16,30,29.00
2021,01,07,16,31,24.20
2021,01,07,16,32,20.90
2021,01,07,16,33,25.70
2021,01,07,16,34,25.70
2021,01,07,16,35,29.00
2021,01,07,16,36,29.00
2021,01,07,16,37,25.70
2021,01,07,16,38,27.40
2021,01,07,16,39,24.20
2021,01,07,16,40,32.20
2021,01,07,16,41,19.30
2021,01,07,16,42,20.90
2021,01,07,16,43,22.50
2021,01,07,16,44,22.50
2021,01,07,16,45,27.40
2021,01,07,16,46,25.70
2021,01,07,16,47,20.90
2021,01,07,16,48,20.90
2021,01,07,16,49,19.30
2021,01,07,16,50,25.70
2021,01,07,16,51,32.20
2021,01,07,16,52,22.50
2021,01,07,16,53,37.00
2021,01,07,16,54,29.00
2021,01,07,16,55,25.70
2021,01,07,16,56,22.50
2021,01,07,16,57,17.70
2021,01,07,16,58,27.40
2021,01,07,16,59,22.50
2021,01,07,17,00,22.50
2021,01,07,17,01,22.50
2021,01,07,17,02,16.10
2021,01,07,17,03,17.70
2021,01,07,17,04,17.70
2021,01,07,17,05,19.30
2021,01,07,17,06,12.90
2021,01,07,17,07,17.70
2021,01,07,17,08,14.50
2021,01,07,17,09,14.50
2021,01,07,17,10,16.10
2021,01,07,17,11,19.30
2021,01,07,17,12,22.50
2021,01,07,17,13,20.90
2021,01,07,17,14,25.70
2021,01,07,17,15,25.70
2021,01,07,17,16,19.30
2021,01,07,17,17,19.30
2021,01,07,17,18,17.70
2021,01,07,17,19,20.90
2021,01,07,17,20,17.70
2021,01,07,17,21,19.30
2021,01,07,17,22,14.50
2021,01,07,17,23,22.50
2021,01,07,17,24,20.90
2021,01,07,17,25,22.50
2021,01,07,17,26,27.40
2021,01,07,17,27,22.50
2021,01,07,17,28,22.50
2021,01,07,17,29,20.90
2021,01,07,17,30,14.50
2021,01,07,17,31,22.50
2021,01,07,17,32,20.90
2021,01,07,17,33,20.90
2021,01,07,17,34,16.10
2021,01,07,17,35,22.50
2021,01,07,17,36,25.70
2021,01,07,17,37,19.30
2021,01,07,17,38,20.90
2021,01,07,17,39,20.90
2021,01,07,17,40,22.50
2021,01,07,17,41,14.50
2021,01,07,17,42,16.10
2021,01,07,17,43,16.10
2021,01,07,17,44,14.50
2021,01,07,17,45,19.30
2021,01,07,17,46,17.70
2021,01,07,17,47,17.70
2021,01,07,17,48,16.10
2021,01,07,17,49,14.50
2021,01,07,17,50,17.70
2021,01,07,17,51,20.90
2021,01,07,17,52,19.30
2021,01,07,17,53,20.90
2021,01,07,17,54,17.70
2021,01,07,17,55,14.50
2021,01,07,17,56,19.30
2021,01,07,17,57,14.50
2021,01,07,17,58,22.50
2021,01,07,17,59,16.10
2021,01,07,18,00,19.30
2021,01,07,18,01,14.50
2021,01,07,18,02,14.50
2021,01,07,18,03,20.90
2021,01,07,18,04,17.70
2021,01,07,18,05,17.70
2021,01,07,18,06,24.20
2021,01,07,18,07,16.10
2021,01,07,18,08,16.10
2021,01,07,18,09,17.70
2021,01,07,18,10,20.90
2021,01,07,18,11,17.70
2021,01,07,18,12,19.30
2021,01,07,18,13,14.50
2021,01,07,18,14,17.70
2021,01,07,18,15,20.90
2021,01,07,18,16,19.30
2021,01,07,18,17,12.90
2021,01,07,18,18,14.50
2021,01,07,18,19,17.70
2021,01,07,18,20,20.90
2021,01,07,18,21,19.30
2021,01,07,18,22,14.50
2021,01,07,18,23,17.70
2021,01,07,18,24,12.90
2021,01,07,18,25,19.30
2021,01,07,18,26,12.90
2021,01,07,18,27,12.90
2021,01,07,18,28,16.10
2021,01,07,18,29,16.10
2021,01,07,18,30,19.30
2021,01,07,18,31,20.90
2021,01,07,18,32,22.50
2021,01,07,18,33,22.50
2021,01,07,18,34,20.90
2021,01,07,18,35,20.90
2021,01,07,18,36,14.50
2021,01,07,18,37,19.30
2021,01,07,18,38,19.30
2021,01,07,18,39,16.10
2021,01,07,18,40,19.30
2021,01,07,18,41,16.10
2021,01,07,18,42,16.10
2021,01,07,18,43,12.90
2021,01,07,18,44,16.10
2021,01,07,18,45,16.10
2021,01,07,18,46,17.70
2021,01,07,18,47,14.50
2021,01,07,18,48,14.50
2021,01,07,18,49,16.10
2021,01,07,18,50,19.30
2021,01,07,18,51,17.70
2021,01,07,18,52,16.10
2021,01,07,18,53,14.50
2021,01,07,18,54,16.10
2021,01,07,18,55,14.50
2021,01,07,18,56,17.70
2021,01,07,18,57,17.70
2021,01,07,18,58,16.10
2021,01,07,18,59,16.10
2021,01,07,19,00,16.10
2021,01,07,19,01,14.50
2021,01,07,19,02,14.50
2021,01,07,19,03,14.50
2021,01,07,19,04,14.50
2021,01,07,19,05,11.30
2021,01,07,19,06,17.70
2021,01,07,19,07,17.70
2021,01,07,19,08,14.50
2021,01,07,19,09,11.30
2021,01,07,19,10,16.10
2021,01,07,19,11,11.30
2021,01,07,19,12,16.10
2021,01,07,19,13,14.50
2021,01,07,19,14,16.10
2021,01,07,19,15,12.90
2021,01,07,19,16,16.10
2021,01,07,19,17,19.30
2021,01,07,19,18,19.30
2021,01,07,19,19,14.50
2021,01,07,19,20,22.50
2021,01,07,19,21,22.50
2021,01,07,19,22,22.50
2021,01,07,19,23,22.50
2021,01,07,19,24,25.70
2021,01,07,19,25,20.90
2021,01,07,19,26,22.50
2021,01,07,19,27,20.90
2021,01,07,19,28,22.50
2021,01,07,19,29,22.50
2021,01,07,19,30,17.70
2021,01,07,19,31,16.10
2021,01,07,19,32,11.30
2021,01,07,19,33,12.90
2021,01,07,19,34,16.10
2021,01,07,19,35,16.10
2021,01,07,19,36,14.50
2021,01,07,19,37,22.50
2021,01,07,19,38,17.70
2021,01,07,19,39,19.30
2021,01,07,19,40,16.10
2021,01,07,19,41,16.10
2021,01,07,19,42,11.30
2021,01,07,19,43,14.50
2021,01,07,19,44,17.70
2021,01,07,19,45,20.90
2021,01,07,19,46,19.30
2021,01,07,19,47,19.30
2021,01,07,19,48,17.70
2021,01,07,19,49,17.70
2021,01,07,19,50,17.70
2021,01,07,19,51,16.10
2021,01,07,19,52,16.10
2021,01,07,19,53,14.50
2021,01,07,19,54,12.90
2021,01,07,19,55,16.10
2021,01,07,19,56,19.30
2021,01,07,19,57,16.10
2021,01,07,19,58,19.30
2021,01,07,19,59,17.70
2021,01,07,20,00,12.90
2021,01,07,20,01,14.50
2021,01,07,20,02,11.30
2021,01,07,20,03,19.30
2021,01,07,20,04,16.10
2021,01,07,20,05,16.10
2021,01,07,20,06,17.70
2021,01,07,20,07,12.90
2021,01,07,20,08,14.50
2021,01,07,20,09,9.60
2021,01,07,20,10,14.50
2021,01,07,20,11,11.30
2021,01,07,20,12,9.60
2021,01,07,20,13,8.10
2021,01,07,20,14,11.30
2021,01,07,20,15,9.60